Tracking 29494 objects as of 8-Sep-2024
HD Live streaming from Space Station
objects crossing your sky now

THOR ABLESTAR DEB *

Track THOR ABLESTAR DEB * now!
10-day predictions


NORAD ID: 18651
Int'l Code: 1961-015LW
Perigee: 926.8 km
Apogee: 2,097.3 km
Inclination: 65.7 °
Period: 116.1 minutes
Semi major axis: 7883 km
RCS: 0.0068 m2 (small)
Launch date: June 29, 1961
Source: United States (US)
Launch site: AIR FORCE EASTERN TEST RANGE (AFETR)

Note: This is SATELLITE DEBRIS
Your satellite tracking list
Your tracking list is empty




NASA's NSSDC Master Catalog

Two Line Element Set (TLE):
1 18651U 61015LW  24251.24536687  .00000032  00000-0  25143-3 0  9992
2 18651  65.6969  75.8534 0742387 160.1644  12.2434 12.40394116523938
Source of the keplerian elements: AFSPC